Terminal Aerodrome Forecast
Issued by NWS

Home | Current Version | Previous Version | Text Only | Print | Product List | Glossary On
Versions: 1 2 3 4 5 6 7 8 9 10 11 12 13 14 15 16 17 18 19 20 21 22 23 24 25 26 27 28 29 30 31 32 33 34 35 36 37 38 39 40 41 42 43 44 45 46 47 48 49 50
000
FTUS41 KCTP 231126
TAFUNV
TAF
KUNV 231126Z 2312/2412 31007KT P6SM BKN250
     FM231400 30010G20KT P6SM SCT050
     FM240100 35006KT P6SM BKN040
     FM240900 VRB03KT 5SM BR SKC
     FM241100 VRB03KT 1/2SM FG BKN002=

USA.gov is the U.S. government's official web portal to all federal, state and local government web resources and services.